When you browse on this site, cookies collect data to enhance your experience and personalize the content and advertising you see.
Visit our Privacy Policy to learn more. By continuing to use the site, you agree to this use of cookies and data.
  • In Spain
  • List of Countries
  • For 7 days
  • Water Temperature
  • Satellite Maps
  • Weather Map
  • Weather Widgets
  • user-avatar
    Login

    Hourly Weather Chervonopillya

    Today, 24 May, Friday

    Time Temperature Precipitation Wind Pressure Humidity
    00:00 +16°C° 0 mm 2 mps 750 mmHg 77%
    01:00 +16°C° 0 mm 2 mps 750 mmHg 78%
    02:00 +16°C° 0 mm 1 mps 750 mmHg 81%
    03:00 +16°C° 0 mm 1 mps 750 mmHg 81%
    04:00 +16°C° 0 mm 1 mps 750 mmHg 81%
    05:00 +16°C° 0 mm 1 mps 750 mmHg 82%
    06:00 +19°C° 0 mm 1 mps 750 mmHg 76%
    07:00 +21°C° 0 mm 1 mps 750 mmHg 70%
    08:00 +23°C° 0 mm 1 mps 750 mmHg 64%
    09:00 +24°C° 0.1 mm 1 mps 750 mmHg 59%
    10:00 +25°C° 0.1 mm 1 mps 750 mmHg 54%
    11:00 +26°C° 0.1 mm 1 mps 750 mmHg 49%
    12:00 +26°C° 0 mm 1 mps 750 mmHg 49%
    13:00 +26°C° 0 mm 1 mps 749 mmHg 49%
    14:00 +26°C° 0 mm 1 mps 749 mmHg 49%
    15:00 +26°C° 0 mm 1 mps 749 mmHg 50%
    16:00 +26°C° 0 mm 1 mps 749 mmHg 51%
    17:00 +26°C° 0 mm 1 mps 749 mmHg 52%
    18:00 +24°C° 0.5 mm 2 mps 749 mmHg 59%
    19:00 +21°C° 0.5 mm 2 mps 749 mmHg 66%
    20:00 +20°C° 0.5 mm 3 mps 749 mmHg 74%
    21:00 +19°C° 2 mm 2 mps 749 mmHg 77%
    22:00 +19°C° 2 mm 2 mps 749 mmHg 80%
    23:00 +19°C° 2 mm 1 mps 749 mmHg 83%

    Tomorrow, 25 May, Saturday

    Time Temperature Precipitation Wind Pressure Humidity
    00:00 +19°C° 0.1 mm 1 mps 749 mmHg 83%
    01:00 +19°C° 0.1 mm 1 mps 749 mmHg 82%
    02:00 +17°C° 0.1 mm 0 mps 749 mmHg 81%
    03:00 +16°C° 0 mm 0 mps 749 mmHg 81%
    04:00 +18°C° 0 mm 1 mps 749 mmHg 81%
    05:00 +18°C° 0 mm 1 mps 748 mmHg 81%
    06:00 +20°C° 0 mm 1 mps 748 mmHg 76%
    07:00 +21°C° 0 mm 1 mps 748 mmHg 70%
    08:00 +22°C° 0 mm 1 mps 749 mmHg 64%
    09:00 +24°C° 0 mm 1 mps 748 mmHg 59%
    10:00 +25°C° 0 mm 1 mps 748 mmHg 53%
    11:00 +26°C° 0 mm 2 mps 748 mmHg 47%
    12:00 +26°C° 0 mm 2 mps 748 mmHg 45%
    13:00 +27°C° 0 mm 2 mps 748 mmHg 44%
    14:00 +27°C° 0 mm 2 mps 748 mmHg 42%
    15:00 +27°C° 0 mm 3 mps 748 mmHg 46%
    16:00 +26°C° 0 mm 4 mps 748 mmHg 50%
    17:00 +26°C° 0 mm 4 mps 748 mmHg 54%
    18:00 +22°C° 0.6 mm 4 mps 748 mmHg 63%
    19:00 +20°C° 0.6 mm 4 mps 748 mmHg 71%
    20:00 +18°C° 0.6 mm 4 mps 748 mmHg 80%
    21:00 +18°C° 1.6 mm 4 mps 748 mmHg 83%
    22:00 +17°C° 1.6 mm 4 mps 748 mmHg 86%
    23:00 +17°C° 1.6 mm 3 mps 748 mmHg 89%

    Day after tomorrow, 26 May, Sunday

    Time Temperature Precipitation Wind Pressure Humidity
    00:00 +17°C° 0.3 mm 3 mps 748 mmHg 89%
    01:00 +17°C° 0.3 mm 3 mps 748 mmHg 90%
    02:00 +16°C° 0.3 mm 3 mps 748 mmHg 90%
    03:00 +16°C° 0 mm 3 mps 749 mmHg 91%
    04:00 +17°C° 0 mm 3 mps 749 mmHg 91%
    05:00 +17°C° 0 mm 3 mps 749 mmHg 91%
    06:00 +18°C° 0 mm 3 mps 749 mmHg 86%
    07:00 +20°C° 0 mm 3 mps 750 mmHg 81%
    08:00 +22°C° 0 mm 4 mps 750 mmHg 76%
    09:00 +23°C° 0.2 mm 4 mps 750 mmHg 68%
    10:00 +25°C° 0.2 mm 4 mps 750 mmHg 61%
    11:00 +27°C° 0.2 mm 4 mps 751 mmHg 53%
    12:00 +27°C° 0.7 mm 5 mps 751 mmHg 52%
    13:00 +27°C° 0.7 mm 5 mps 751 mmHg 51%
    14:00 +27°C° 0.7 mm 5 mps 751 mmHg 50%
    15:00 +27°C° 0 mm 5 mps 751 mmHg 50%
    16:00 +27°C° 0 mm 5 mps 751 mmHg 51%
    17:00 +27°C° 0 mm 4 mps 752 mmHg 51%
    18:00 +25°C° 0 mm 4 mps 752 mmHg 56%
    19:00 +22°C° 0 mm 3 mps 752 mmHg 62%
    20:00 +20°C° 0 mm 2 mps 753 mmHg 67%
    21:00 +20°C° 0 mm 2 mps 753 mmHg 70%
    22:00 +19°C° 0 mm 2 mps 754 mmHg 72%
    23:00 +19°C° 0 mm 2 mps 754 mmHg 75%

    27 May, Monday

    Time Temperature Precipitation Wind Pressure Humidity
    00:00 +18°C° 0 mm 2 mps 754 mmHg 76%
    01:00 +19°C° 0 mm 1 mps 754 mmHg 78%
    02:00 +18°C° 0 mm 1 mps 755 mmHg 80%
    03:00 +19°C° 0 mm 1 mps 755 mmHg 80%
    04:00 +19°C° 0 mm 1 mps 755 mmHg 81%
    05:00 +19°C° 0 mm 1 mps 755 mmHg 82%
    06:00 +20°C° 0 mm 1 mps 755 mmHg 75%
    07:00 +20°C° 0 mm 0 mps 756 mmHg 68%
    08:00 +22°C° 0 mm 0 mps 756 mmHg 62%
    09:00 +25°C° 0 mm 1 mps 756 mmHg 57%
    10:00 +26°C° 0 mm 1 mps 756 mmHg 52%
    11:00 +27°C° 0 mm 2 mps 756 mmHg 47%
    12:00 +28°C° 0 mm 2 mps 756 mmHg 45%
    13:00 +29°C° 0 mm 2 mps 756 mmHg 43%
    14:00 +29°C° 0 mm 2 mps 756 mmHg 40%
    15:00 +29°C° 0 mm 3 mps 756 mmHg 42%
    16:00 +29°C° 0 mm 3 mps 756 mmHg 44%
    17:00 +29°C° 0 mm 3 mps 756 mmHg 45%
    18:00 +27°C° 0 mm 3 mps 756 mmHg 53%
    19:00 +25°C° 0 mm 3 mps 756 mmHg 60%
    20:00 +21°C° 0 mm 3 mps 756 mmHg 67%
    21:00 +21°C° 0 mm 3 mps 756 mmHg 69%
    22:00 +20°C° 0 mm 2 mps 757 mmHg 71%
    23:00 +19°C° 0 mm 2 mps 757 mmHg 73%

    28 May, Tuesday

    Time Temperature Precipitation Wind Pressure Humidity
    00:00 +19°C° 0 mm 2 mps 757 mmHg 75%
    01:00 +19°C° 0 mm 1 mps 757 mmHg 77%
    02:00 +19°C° 0 mm 1 mps 757 mmHg 79%
    03:00 +19°C° 0 mm 1 mps 757 mmHg 79%
    04:00 +19°C° 0 mm 1 mps 757 mmHg 80%
    05:00 +18°C° 0 mm 2 mps 757 mmHg 80%
    06:00 +20°C° 0 mm 2 mps 757 mmHg 75%
    07:00 +22°C° 0 mm 3 mps 757 mmHg 69%
    08:00 +25°C° 0 mm 4 mps 757 mmHg 64%
    09:00 +26°C° 0 mm 5 mps 756 mmHg 57%
    10:00 +27°C° 0 mm 6 mps 756 mmHg 51%
    11:00 +28°C° 0 mm 6 mps 756 mmHg 45%
    12:00 +29°C° 0 mm 7 mps 756 mmHg 44%
    13:00 +29°C° 0 mm 7 mps 756 mmHg 43%
    14:00 +30°C° 0 mm 7 mps 755 mmHg 42%
    15:00 +29°C° 0 mm 7 mps 755 mmHg 46%
    16:00 +29°C° 0 mm 6 mps 755 mmHg 49%
    17:00 +28°C° 0 mm 6 mps 754 mmHg 52%
    18:00 +26°C° 0 mm 6 mps 754 mmHg 58%
    19:00 +23°C° 0 mm 6 mps 754 mmHg 63%
    20:00 +21°C° 0 mm 5 mps 754 mmHg 69%
    21:00 +21°C° 0 mm 5 mps 754 mmHg 71%
    22:00 +20°C° 0 mm 5 mps 754 mmHg 74%
    23:00 +19°C° 0 mm 5 mps 754 mmHg 76%

    29 May, Wednesday

    Time Temperature Precipitation Wind Pressure Humidity
    00:00 +19°C° 0 mm 4 mps 754 mmHg 79%
    01:00 +18°C° 0 mm 4 mps 754 mmHg 82%
    02:00 +18°C° 0 mm 4 mps 754 mmHg 84%
    03:00 +18°C° 0 mm 4 mps 754 mmHg 85%
    04:00 +18°C° 0 mm 4 mps 754 mmHg 87%
    05:00 +18°C° 0 mm 4 mps 754 mmHg 88%
    06:00 +20°C° 0 mm 4 mps 754 mmHg 81%
    07:00 +22°C° 0 mm 5 mps 754 mmHg 74%
    08:00 +24°C° 0 mm 6 mps 754 mmHg 67%
    09:00 +27°C° 0 mm 6 mps 754 mmHg 60%
    10:00 +29°C° 0 mm 6 mps 753 mmHg 53%
    11:00 +30°C° 0 mm 7 mps 753 mmHg 46%
    12:00 +30°C° 0 mm 6 mps 753 mmHg 45%
    13:00 +30°C° 0 mm 6 mps 753 mmHg 45%
    14:00 +30°C° 0 mm 6 mps 753 mmHg 45%
    15:00 +30°C° 0 mm 5 mps 753 mmHg 48%
    16:00 +29°C° 0 mm 4 mps 753 mmHg 50%
    17:00 +28°C° 0 mm 4 mps 752 mmHg 53%
    18:00 +26°C° 0 mm 3 mps 753 mmHg 57%
    19:00 +25°C° 0 mm 3 mps 753 mmHg 61%
    20:00 +22°C° 0 mm 3 mps 753 mmHg 65%
    21:00 +21°C° 0.1 mm 3 mps 753 mmHg 69%
    22:00 +20°C° 0.1 mm 3 mps 753 mmHg 72%
    23:00 +19°C° 0.1 mm 3 mps 754 mmHg 76%
    Show more